Back to catalog

STARLINK-30402

AliveCommunicationsVLEO
NORAD 57827·PAYLOAD·🇺🇸 United States

Launched Sep 9, 2023 from Cape Canaveral Space Force Station

Loading…

Next Passes (next 24 hours)

TLE

FreshSource: CelesTrak SupGP

Epoch: Sep 14, 2026, 22:22 UTC

1 57827C 23138V   26257.93243056  .00035983  00000+0  13038-2 0  2571
2 57827  43.0019 245.3644 0001297 252.0021  26.8735 15.27548079    17

Track STARLINK-30402 in real time with AllMySat

Download on the App Store